Overview Statistics Trail Chart Weather Telemetry Raw packets
 

This is the latest recevied weather packets stored in our database for station/object S56VIL-11. If no packets are shown the sender has not sent any weather packets the latest 10 day(s).

<< 32 33 34 35 36 >>
Time Temp. Humidity Pressure Rain* Wind** Luminosity Snow
1787858145 21.11° C 69% 1032.8 hPa - - - -
1787857244 21.11° C 69% 1032.8 hPa - - - -
1787856344 21.11° C 69% 1032.7 hPa - - - -
1787855447 21.67° C 68% 1032.8 hPa - - - -
1787854544 21.67° C 68% 1032.8 hPa - - - -
1787853688 21.67° C 68% 1032.7 hPa - - - -
1787853645 21.67° C 68% 1032.7 hPa - - - -
1787852744 22.22° C 68% 1032.5 hPa - - - -
1787851844 22.22° C 67% 1032.6 hPa - - - -
1787850944 22.78° C 67% 1032.3 hPa - - - -
1787850044 23.33° C 66% 1032.4 hPa - - - -
1787849144 23.33° C 67% 1032.4 hPa - - - -
1787848244 24.44° C 66% 1032.5 hPa - - - -
1787847345 25° C 65% 1032.6 hPa - - - -
1787846444 24.44° C 66% 1032.6 hPa - - - -
1787845544 24.44° C 66% 1032.6 hPa - - - -
1787844644 24.44° C 66% 1032.7 hPa - - - -
1787843744 24.44° C 66% 1032.6 hPa - - - -
1787842844 25° C 65% 1032.6 hPa - - - -
1787841944 25.56° C 65% 1032.5 hPa - - - -
1787841044 27.22° C 64% 1032.3 hPa - - - -
1787840144 27.78° C 63% 1032.3 hPa - - - -
1787839243 29.44° C 62% 1032.3 hPa - - - -
1787838343 28.89° C 62% 1032.3 hPa - - - -
1787837443 28.89° C 63% 1032.3 hPa - - - -

* Rain since midnight (hover to see other rain measurements)
** Current wind speed in m/s (hover to see current wind gust speed)